CW9792 Weather Reports


Display with metric or nautical units.
time (UTC)temp
F
wind
direction
speed
MPH
gust
MPH
rain 1hr
in
rain 24hr
in
rain mn
in
humidity
%
barometer
mb
20260905220034 93 22 0.0 0.0 0.00 0.00 0.00 39 1009.6
20260905215534 93 17 0.0 0.0 0.00 0.00 0.00 40 1009.6
20260905215032 93 360 0.0 0.0 0.00 0.00 0.00 40 1009.7
20260905214538 93 18 0.0 0.0 0.00 0.00 0.00 39 1009.7
20260905214032 93 346 0.0 0.0 0.00 0.00 0.00 40 1009.7
20260905213533 94 314 0.0 0.0 0.00 0.00 0.00 40 1009.8
20260905213033 93 348 0.0 0.0 0.00 0.00 0.00 40 1009.9
20260905212535 94 347 0.0 0.0 0.00 0.00 0.00 39 1009.8
20260905212030 94 343 0.0 0.0 0.00 0.00 0.00 39 1009.7
20260905211542 94 360 0.0 0.0 0.00 0.00 0.00 40 1009.8
20260905211032 94 355 0.0 0.0 0.00 0.00 0.00 38 1009.8
20260905210530 94 11 0.0 0.0 0.00 0.00 0.00 38 1009.8
20260905210040 95 344 0.0 0.0 0.00 0.00 0.00 37 1010.0
20260905205529 95 304 0.0 0.0 0.00 0.00 0.00 38 1009.9
20260905205029 96 328 0.0 1.0 0.00 0.00 0.00 36 1010.0
20260905204528 97 290 0.0 1.0 0.00 0.00 0.00 36 1010.0
20260905204027 96 340 0.0 0.0 0.00 0.00 0.00 38 1010.1
20260905203527 96 346 0.0 0.0 0.00 0.00 0.00 37 1010.2
20260905203027 94 303 0.0 0.0 0.00 0.00 0.00 39 1010.3
20260905202527 94 300 0.0 0.0 0.00 0.00 0.00 40 1010.3
20260905202024 93 327 0.0 0.0 0.00 0.00 0.00 41 1010.4
20260905201524 93 285 0.0 1.0 0.00 0.00 0.00 40 1010.5
20260905201024 93 238 0.0 0.0 0.00 0.00 0.00 41 1010.6
20260905200527 93 291 0.0 0.0 0.00 0.00 0.00 40 1010.7
20260905200027 95 296 0.0 0.0 0.00 0.00 0.00 39 1010.7
20260905195523 95 339 0.0 0.0 0.00 0.00 0.00 38 1010.7
20260905195026 96 301 0.0 0.0 0.00 0.00 0.00 38 1010.7
20260905194521 96 5 0.0 0.0 0.00 0.00 0.00 37 1010.8
20260905194021 95 349 0.0 0.0 0.00 0.00 0.00 38 1011.0
20260905193522 95 283 0.0 0.0 0.00 0.00 0.00 38 1011.0
20260905193019 95 333 0.0 0.0 0.00 0.00 0.00 38 1011.1
20260905192520 95 342 0.0 0.0 0.00 0.00 0.00 38 1011.1
20260905192020 95 256 0.0 0.0 0.00 0.00 0.00 39 1011.1
20260905191518 95 261 0.0 0.0 0.00 0.00 0.00 37 1011.1
20260905191019 97 209 0.0 0.0 0.00 0.00 0.00 36 1011.2
20260905190517 96 277 0.0 0.0 0.00 0.00 0.00 37 1011.3
20260905190017 95 290 0.0 1.0 0.00 0.00 0.00 37 1011.4
20260905185516 97 251 0.0 1.0 0.00 0.00 0.00 36 1011.4
20260905185014 96 46 0.0 0.0 0.00 0.00 0.00 37 1011.6
20260905184525 94 28 0.0 0.0 0.00 0.00 0.00 38 1011.8
20260905184014 93 24 0.0 0.0 0.00 0.00 0.00 39 1011.8
20260905183514 93 350 0.0 0.0 0.00 0.00 0.00 39 1011.9
20260905183013 94 309 0.0 0.0 0.00 0.00 0.00 39 1011.9
20260905182512 94 150 0.0 0.0 0.00 0.00 0.00 39 1012.0
20260905182012 94 159 0.0 0.0 0.00 0.00 0.00 38 1012.0
20260905181512 94 156 0.0 0.0 0.00 0.00 0.00 39 1012.0
20260905181012 94 208 0.0 0.0 0.00 0.00 0.00 39 1012.0
20260905180515 94 181 0.0 0.0 0.00 0.00 0.00 39 1012.1
20260905180011 94 178 0.0 0.0 0.00 0.00 0.00 40 1012.3
20260905175511 93 306 0.0 0.0 0.00 0.00 0.00 39 1012.4
20260905175011 94 144 0.0 0.0 0.00 0.00 0.00 39 1012.4
20260905174510 94 140 0.0 0.0 0.00 0.00 0.00 38 1012.5
20260905174009 93 144 0.0 0.0 0.00 0.00 0.00 39 1012.5
20260905173509 93 25 0.0 0.0 0.00 0.00 0.00 40 1012.7
20260905173007 93 131 0.0 0.0 0.00 0.00 0.00 40 1012.7
20260905172508 93 68 0.0 0.0 0.00 0.00 0.00 39 1012.8
20260905172009 92 142 0.0 0.0 0.00 0.00 0.00 40 1012.8
20260905171505 92 144 0.0 0.0 0.00 0.00 0.00 40 1012.8
20260905171004 91 90 0.0 0.0 0.00 0.00 0.00 42 1012.7
20260905170504 92 110 0.0 0.0 0.00 0.00 0.00 40 1012.9
20260905170004 91 111 0.0 0.0 0.00 0.00 0.00 42 1013.0
20260905165501 91 140 0.0 0.0 0.00 0.00 0.00 44 1013.2
20260905165100 90 111 0.0 0.0 0.00 0.00 0.00 45 1013.2
20260905164607 89 76 0.0 0.0 0.00 0.00 0.00 45 1013.2
20260905164058 89 105 0.0 0.0 0.00 0.00 0.00 46 1013.3
20260905163558 89 123 0.0 0.0 0.00 0.00 0.00 46 1013.3
20260905163059 89 142 0.0 0.0 0.00 0.00 0.00 47 1013.4
20260905162556 88 113 0.0 0.0 0.00 0.00 0.00 49 1013.6
20260905162054 87 138 0.0 0.0 0.00 0.00 0.00 50 1013.5
20260905161606 87 84 0.0 0.0 0.00 0.00 0.00 51 1013.4
20260905161052 86 110 0.0 0.0 0.00 0.00 0.00 52 1013.3
20260905160552 86 38 0.0 1.0 0.00 0.00 0.00 52 1013.4
20260905160051 86 99 0.0 0.0 0.00 0.00 0.00 52 1013.4
20260905155549 85 73 0.0 0.0 0.00 0.00 0.00 52 1013.4
20260905155049 85 112 0.0 1.0 0.00 0.00 0.00 51 1013.6
20260905154548 85 61 0.0 0.0 0.00 0.00 0.00 52 1013.6
20260905154047 84 78 0.0 0.0 0.00 0.00 0.00 55 1013.7
20260905153547 84 65 0.0 1.0 0.00 0.00 0.00 56 1013.8
20260905153046 84 117 0.0 1.0 0.00 0.00 0.00 55 1013.9
20260905152546 84 129 0.0 0.0 0.00 0.00 0.00 55 1013.7
20260905152046 83 142 0.0 0.0 0.00 0.00 0.00 56 1013.8
20260905151546 83 105 0.0 0.0 0.00 0.00 0.00 56 1013.7
20260905151045 82 111 0.0 0.0 0.00 0.00 0.00 58 1013.8
20260905150545 81 122 0.0 1.0 0.00 0.00 0.00 57 1013.7
20260905150045 81 86 0.0 1.0 0.00 0.00 0.00 58 1013.6
20260905145545 81 73 0.0 0.0 0.00 0.00 0.00 58 1013.8
20260905145045 81 111 0.0 0.0 0.00 0.00 0.00 58 1013.9
20260905144545 81 93 0.0 0.0 0.00 0.00 0.00 58 1013.7
20260905144044 81 103 0.0 0.0 0.00 0.00 0.00 57 1013.7
20260905143545 81 41 0.0 0.0 0.00 0.00 0.00 57 1013.8
20260905143044 81 109 0.0 1.0 0.00 0.00 0.00 57 1013.8
20260905142548 81 79 0.0 1.0 0.00 0.00 0.00 58 1013.7
20260905142044 81 54 0.0 1.0 0.00 0.00 0.00 58 1013.8
20260905141544 81 44 0.0 1.0 0.00 0.00 0.00 57 1013.9
20260905141045 82 111 0.0 0.0 0.00 0.00 0.00 57 1014.0
20260905140543 82 123 0.0 1.0 0.00 0.00 0.00 57 1013.7
20260905140044 83 94 0.0 1.0 0.00 0.00 0.00 56 1014.1
20260905135542 84 63 0.0 0.0 0.00 0.00 0.00 57 1014.0
20260905135040 84 69 0.0 0.0 0.00 0.00 0.00 56 1013.6
20260905134540 83 124 0.0 0.0 0.00 0.00 0.00 57 1013.4
20260905134039 83 91 0.0 0.0 0.00 0.00 0.00 56 1013.4
20260905133538 82 77 0.0 0.0 0.00 0.00 0.00 57 1013.5
20260905133039 82 74 0.0 0.0 0.00 0.00 0.00 58 1013.4
20260905132535 81 59 0.0 0.0 0.00 0.00 0.00 57 1013.4
20260905132034 81 57 0.0 1.0 0.00 0.00 0.00 57 1013.6
20260905131533 81 46 0.0 0.0 0.00 0.00 0.00 58 1013.5
20260905131032 80 44 0.0 0.0 0.00 0.00 0.00 58 1013.5
20260905130530 80 32 0.0 0.0 0.00 0.00 0.00 59 1013.6
20260905130030 80 36 0.0 0.0 0.00 0.00 0.00 59 1013.6
20260905125533 79 37 0.0 0.0 0.00 0.00 0.00 59 1013.6
20260905125030 79 37 0.0 0.0 0.00 0.00 0.00 59 1013.6
20260905124527 79 194 0.0 0.0 0.00 0.00 0.00 61 1013.6
20260905124025 78 194 0.0 0.0 0.00 0.00 0.00 62 1013.5
20260905123524 78 194 0.0 0.0 0.00 0.00 0.00 63 1013.5
20260905123023 77 194 0.0 0.0 0.00 0.00 0.00 63 1013.3
20260905122523 76 194 0.0 0.0 0.00 0.00 0.00 64 1013.3
20260905122022 76 194 0.0 0.0 0.00 0.00 0.00 65 1013.4
20260905121522 75 193 0.0 0.0 0.00 0.00 0.00 65 1013.4
20260905121023 75 192 0.0 0.0 0.00 0.00 0.00 65 1013.3
20260905120522 75 192 0.0 0.0 0.00 0.00 0.00 65 1013.3
20260905120021 75 192 0.0 0.0 0.00 0.00 0.00 64 1013.3
20260905115524 74 192 0.0 0.0 0.00 0.00 0.00 64 1013.1
20260905115023 74 193 0.0 0.0 0.00 0.00 0.00 64 1013.0
20260905114520 74 193 0.0 0.0 0.00 0.00 0.00 64 1013.0
20260905114019 75 193 0.0 0.0 0.00 0.00 0.00 63 1013.0
20260905113524 75 193 0.0 0.0 0.00 0.00 0.00 63 1012.9
20260905113018 75 193 0.0 0.0 0.00 0.00 0.00 63 1012.8
20260905112517 75 193 0.0 0.0 0.00 0.00 0.00 62 1012.7
20260905112018 75 193 0.0 0.0 0.00 0.00 0.00 62 1012.7
20260905111519 75 193 0.0 0.0 0.00 0.00 0.00 62 1012.7
20260905111017 76 193 0.0 0.0 0.00 0.00 0.00 62 1012.5
20260905110518 76 193 0.0 0.0 0.00 0.00 0.00 61 1012.4
20260905110017 76 193 0.0 0.0 0.00 0.00 0.00 61 1012.4
20260905105517 76 193 0.0 0.0 0.00 0.00 0.00 60 1012.3
20260905105017 76 193 0.0 0.0 0.00 0.00 0.00 60 1012.2
20260905104516 77 192 0.0 0.0 0.00 0.00 0.00 60 1012.3
20260905104019 77 193 0.0 0.0 0.00 0.00 0.00 60 1012.2
20260905103520 77 193 0.0 0.0 0.00 0.00 0.00 59 1012.3
20260905103017 77 192 0.0 0.0 0.00 0.00 0.00 59 1012.3
20260905102515 77 193 0.0 0.0 0.00 0.00 0.00 59 1012.3
20260905102015 77 192 0.0 0.0 0.00 0.00 0.00 59 1012.2
20260905101515 77 193 0.0 0.0 0.00 0.00 0.00 59 1012.2
20260905101014 77 193 0.0 0.0 0.00 0.00 0.00 59 1012.1
20260905100514 77 193 0.0 0.0 0.00 0.00 0.00 60 1012.1
20260905100026 77 193 0.0 0.0 0.00 0.00 0.00 60 1012.1
20260905095512 77 184 0.0 0.0 0.00 0.00 0.00 61 1012.1
20260905095012 76 184 0.0 0.0 0.00 0.00 0.00 62 1012.0
20260905094518 76 184 0.0 0.0 0.00 0.00 0.00 62 1012.0
20260905094014 76 184 0.0 0.0 0.00 0.00 0.00 63 1011.9
20260905093513 75 184 0.0 0.0 0.00 0.00 0.00 63 1011.9
20260905093011 75 184 0.0 0.0 0.00 0.00 0.00 63 1011.9
20260905092513 75 184 0.0 0.0 0.00 0.00 0.00 64 1011.9
20260905092014 75 184 0.0 0.0 0.00 0.00 0.00 64 1011.8
20260905091512 75 184 0.0 0.0 0.00 0.00 0.00 64 1011.8
20260905091013 75 184 0.0 0.0 0.00 0.00 0.00 64 1011.8
20260905090510 75 184 0.0 0.0 0.00 0.00 0.00 64 1011.7
20260905090011 75 184 0.0 0.0 0.00 0.00 0.00 64 1011.7
20260905085510 75 184 0.0 0.0 0.00 0.00 0.00 63 1011.6
20260905085009 75 184 0.0 0.0 0.00 0.00 0.00 63 1011.6
20260905084510 75 184 0.0 0.0 0.00 0.00 0.00 63 1011.8
20260905084010 75 184 0.0 0.0 0.00 0.00 0.00 63 1011.7
20260905083510 75 184 0.0 0.0 0.00 0.00 0.00 63 1011.7
20260905083010 75 184 0.0 0.0 0.00 0.00 0.00 63 1011.8
20260905082509 75 184 0.0 0.0 0.00 0.00 0.00 63 1011.9
20260905082009 75 184 0.0 0.0 0.00 0.00 0.00 63 1011.8
20260905081509 76 184 0.0 0.0 0.00 0.00 0.00 63 1011.7
20260905081012 76 189 0.0 0.0 0.00 0.00 0.00 63 1011.7
20260905080508 75 202 0.0 0.0 0.00 0.00 0.00 63 1011.6
20260905080008 75 201 0.0 0.0 0.00 0.00 0.00 64 1011.5
20260905075509 75 177 0.0 0.0 0.00 0.00 0.00 64 1011.7
20260905075007 75 177 0.0 0.0 0.00 0.00 0.00 64 1011.7
20260905074507 75 177 0.0 0.0 0.00 0.00 0.00 64 1011.8
20260905074007 75 177 0.0 0.0 0.00 0.00 0.00 64 1011.9
20260905073506 75 177 0.0 0.0 0.00 0.00 0.00 64 1011.8
20260905073009 75 177 0.0 0.0 0.00 0.00 0.00 64 1011.8
20260905072507 75 177 0.0 0.0 0.00 0.00 0.00 64 1011.8
20260905072005 75 177 0.0 0.0 0.00 0.00 0.00 64 1011.9
20260905071504 75 175 0.0 0.0 0.00 0.00 0.00 65 1011.9
20260905071003 75 170 0.0 0.0 0.00 0.00 0.00 64 1012.0
20260905070503 75 170 0.0 0.0 0.00 0.00 0.00 64 1012.0
20260905070003 75 170 0.0 0.0 0.00 0.00 0.00 64 1012.0
20260905065503 75 170 0.0 0.0 0.00 0.00 0.00 64 1012.1
20260905065002 76 170 0.0 0.0 0.00 0.00 0.00 64 1012.2
20260905064619 76 170 0.0 0.0 0.00 0.00 0.00 64 1012.3
20260905064059 76 170 0.0 0.0 0.00 0.00 0.00 64 1012.3
20260905063559 76 170 0.0 0.0 0.00 0.00 0.00 64 1012.3
20260905063059 76 170 0.0 0.0 0.00 0.00 0.00 64 1012.4
20260905062557 76 170 0.0 0.0 0.00 0.00 0.00 64 1012.5
20260905062057 76 170 0.0 0.0 0.00 0.00 0.00 64 1012.5
20260905061604 76 170 0.0 0.0 0.00 0.00 0.00 64 1012.6
20260905061056 76 170 0.0 0.0 0.00 0.00 0.00 64 1012.6
20260905060600 76 170 0.0 0.0 0.00 0.00 0.00 64 1012.6
20260905060059 76 170 0.0 0.0 0.00 0.00 0.00 64 1012.6
20260905055555 76 170 0.0 0.0 0.00 0.00 0.00 64 1012.7
20260905055057 76 170 0.0 0.0 0.00 0.00 0.00 64 1012.6
20260905054703 76 170 0.0 0.0 0.00 0.00 0.00 64 1012.7
20260905054055 76 170 0.0 0.0 0.00 0.00 0.00 64 1012.7
20260905053555 76 170 0.0 0.0 0.00 0.00 0.00 64 1012.7
20260905053054 76 170 0.0 0.0 0.00 0.00 0.00 64 1012.7
20260905052553 76 170 0.0 0.0 0.00 0.00 0.00 64 1012.7
20260905052053 76 170 0.0 0.0 0.00 0.00 0.00 63 1012.7
20260905051553 76 170 0.0 0.0 0.00 0.00 0.00 63 1012.8
20260905051052 76 170 0.0 0.0 0.00 0.00 0.00 63 1012.7
20260905050552 76 170 0.0 0.0 0.00 0.00 0.00 63 1012.7
20260905050051 76 170 0.0 0.0 0.00 0.00 0.00 63 1012.8
20260905045552 76 170 0.0 0.0 0.00 0.00 0.00 63 1012.8
20260905045051 76 170 0.0 0.0 0.00 0.00 0.00 63 1012.8
20260905044604 77 170 0.0 0.0 0.00 0.00 0.00 63 1012.8
20260905044053 77 170 0.0 0.0 0.00 0.00 0.00 63 1012.8
20260905043550 77 170 0.0 0.0 0.00 0.00 0.00 63 1012.7
20260905043054 77 170 0.0 0.0 0.00 0.00 0.00 63 1012.7
20260905042549 77 170 0.0 0.0 0.00 0.00 0.00 63 1012.8
20260905042049 77 170 0.0 0.0 0.00 0.00 0.00 63 1012.8
20260905041549 77 170 0.0 0.0 0.00 0.00 0.00 63 1012.7
20260905041048 77 170 0.0 0.0 0.00 0.00 0.00 63 1012.8
20260905040548 77 170 0.0 0.0 0.00 0.00 0.00 63 1012.9
20260905040054 77 170 0.0 0.0 0.00 0.00 0.00 63 1012.9
20260905035547 77 170 0.0 0.0 0.00 0.00 0.00 63 1012.8
20260905035046 77 170 0.0 0.0 0.00 0.00 0.00 63 1013.0
20260905034559 77 170 0.0 0.0 0.00 0.00 0.00 63 1013.1
20260905034047 77 170 0.0 0.0 0.00 0.00 0.00 63 1013.1
20260905033550 77 170 0.0 0.0 0.00 0.00 0.00 63 1013.1
20260905033046 77 170 0.0 0.0 0.00 0.00 0.00 63 1013.1
20260905032548 77 170 0.0 0.0 0.00 0.00 0.00 63 1013.1
20260905032045 77 170 0.0 0.0 0.00 0.00 0.00 63 1013.0
20260905031549 78 170 0.0 0.0 0.00 0.00 0.00 63 1013.0
20260905031044 78 171 0.0 0.0 0.00 0.00 0.00 63 1013.0
20260905030545 78 171 0.0 0.0 0.00 0.00 0.00 63 1013.0
20260905030046 78 171 0.0 0.0 0.00 0.00 0.00 63 1013.0
20260905025544 78 152 0.0 0.0 0.00 0.00 0.00 63 1013.0
20260905025044 78 152 0.0 0.0 0.00 0.00 0.00 63 1013.1
20260905024555 79 151 0.0 0.0 0.00 0.00 0.00 63 1013.0
20260905024044 79 151 0.0 0.0 0.00 0.00 0.00 63 1013.0
20260905023544 79 152 0.0 0.0 0.00 0.00 0.00 63 1012.9
20260905023044 79 152 0.0 0.0 0.00 0.00 0.00 62 1012.9
20260905022543 80 151 0.0 0.0 0.00 0.00 0.00 62 1012.9
20260905022043 80 151 0.0 0.0 0.00 0.00 0.00 62 1013.0
20260905021544 80 151 0.0 0.0 0.00 0.00 0.00 62 1012.9
20260905021043 80 151 0.0 0.0 0.00 0.00 0.00 61 1013.0
20260905020547 80 151 0.0 0.0 0.00 0.00 0.00 61 1012.9
20260905020052 81 151 0.0 0.0 0.00 0.00 0.00 61 1012.8
20260905015542 81 151 0.0 0.0 0.00 0.00 0.00 61 1012.8
20260905015043 81 151 0.0 0.0 0.00 0.00 0.00 61 1012.8
20260905014543 81 151 0.0 0.0 0.00 0.00 0.00 61 1012.7
20260905014044 81 151 0.0 0.0 0.00 0.00 0.00 61 1012.7
20260905013542 81 151 0.0 0.0 0.00 0.00 0.00 61 1012.6
20260905013042 81 151 0.0 0.0 0.00 0.00 0.00 61 1012.6
20260905012544 81 151 0.0 0.0 0.00 0.00 0.00 60 1012.5
20260905012042 82 151 0.0 0.0 0.00 0.00 0.00 60 1012.5
20260905011541 82 151 0.0 0.0 0.00 0.00 0.00 59 1012.4
20260905011045 82 151 0.0 0.0 0.00 0.00 0.00 59 1012.4
20260905010541 82 151 0.0 0.0 0.00 0.00 0.00 59 1012.4
20260905010043 82 151 0.0 0.0 0.00 0.00 0.00 60 1012.3
20260905005541 83 151 0.0 0.0 0.00 0.00 0.00 59 1012.3
20260905005042 84 151 0.0 0.0 0.00 0.00 0.00 59 1012.3
20260905004541 84 151 0.0 0.0 0.00 0.00 0.00 58 1012.2
20260905004040 84 151 0.0 0.0 0.00 0.00 0.00 56 1012.1
20260905003540 85 151 0.0 1.0 0.00 0.00 0.00 56 1012.1
20260905003041 86 151 0.0 1.0 0.00 0.00 0.00 55 1012.1
20260905002539 86 5 0.0 0.0 0.00 0.00 0.00 54 1012.1
20260905002039 87 5 0.0 0.0 0.00 0.00 0.00 53 1012.1
20260905001539 88 5 0.0 0.0 0.00 0.00 0.00 52 1012.2
20260905001041 88 5 0.0 0.0 0.00 0.00 0.00 51 1012.2
20260905000542 89 5 0.0 0.0 0.00 0.00 0.00 50 1012.2
20260905000039 89 5 0.0 0.0 0.00 0.00 0.00 50 1012.2
20260904235541 91 5 0.0 0.0 0.00 0.00 0.00 49 1012.2
20260904235038 91 5 0.0 0.0 0.00 0.00 0.00 46 1012.3
20260904234538 92 5 0.0 0.0 0.00 0.00 0.00 45 1012.3
20260904234038 92 5 0.0 0.0 0.00 0.00 0.00 44 1012.3
20260904233542 92 5 0.0 0.0 0.00 0.00 0.00 44 1012.3
20260904233038 92 5 0.0 0.0 0.00 0.00 0.00 43 1012.3
20260904232541 93 5 0.0 0.0 0.00 0.00 0.00 41 1012.2
20260904232037 93 5 0.0 0.0 0.00 0.00 0.00 41 1012.2
20260904231552 94 5 0.0 0.0 0.00 0.00 0.00 40 1012.1
20260904231037 95 5 0.0 0.0 0.00 0.00 0.00 37 1012.2
20260904230537 95 5 0.0 0.0 0.00 0.00 0.00 36 1012.2
20260904230037 95 5 0.0 0.0 0.00 0.00 0.00 36 1012.2
20260904225536 95 355 0.0 0.0 0.00 0.00 0.00 37 1012.3
20260904225039 95 355 0.0 0.0 0.00 0.00 0.00 38 1012.2
20260904224536 95 355 0.0 0.0 0.00 0.00 0.00 37 1012.2
20260904224037 95 355 0.0 0.0 0.00 0.00 0.00 37 1012.1
20260904223535 95 355 0.0 0.0 0.00 0.00 0.00 36 1012.2
20260904223038 96 336 0.0 0.0 0.00 0.00 0.00 37 1012.2
20260904222540 96 355 0.0 0.0 0.00 0.00 0.00 37 1012.2
20260904222035 96 9 0.0 0.0 0.00 0.00 0.00 36 1012.2
20260904221539 96 360 0.0 0.0 0.00 0.00 0.00 35 1012.2
20260904221035 96 5 0.0 0.0 0.00 0.00 0.00 35 1012.2
20260904220535 97 360 0.0 0.0 0.00 0.00 0.00 34 1012.2